Location: *
(45.4590°N, 16.3650°E)
Time: 06:11:59
(UTC+00:00)

ATLAS 5 CENTAUR R/B - Pass Details

Date: 17 January 2020
Orbit: 283 x 14332 km, 60.7° (Epoch: 23 February)

Event Time Altitude Azimuth Distance (km) Brightness Sun altitude
Rises 16:56:16 0° 324° (NW) 2,416 5.4 -13.2°
Reaches altitude 10° 16:58:15 10° 347° (NNW) 1,941 4.6 -13.6°
Maximum altitude 17:01:17 18° 35° (NE) 2,123 4.3 -14.1°
Enters shadow 17:03:09 17° 54° (NE) 2,675 4.7 -14.4°
